512  
NZUS43 KILX 290710  
HWRCRS  
 
NWR HOURLY WEATHER ROUNDUP  
NATIONAL WEATHER SERVICE LINCOLN IL  
200 AM CDT MON MAY 29 2017  
 
 
CITY SKY/WX TMP DP RH WIND PRES REMARKS
 
CHAMPAIGN CLEAR 62 54 74 SW10 29.84S  
LAWRENCEVILLE PTCLDY 65 59 81 W3 29.87F  
PEORIA MOCLDY 63 52 67 W5 29.82S  
SPRINGFIELD MOCLDY 65 58 78 SW6 29.85R  

 
 
 
CITY SKY/WX TMP DP RH WIND PRES REMARKS
 
BLOOMINGTON MOCLDY 63 54 72 SW10 29.84R  
DANVILLE CLEAR 59 54 84 SW7 29.82R  
DECATUR CLEAR 60 54 80 SW8 29.85S  
EFFINGHAM CLEAR 60 57 91 S5 29.90R  
FLORA CLEAR 64 58 80 SW6 29.89S  
GALESBURG CLEAR 60 49 66 SW6 29.83  
JACKSONVILLE CLOUDY 63 57 79 SW6 29.86S  
LACON PTCLDY 62 53 72 SW9 29.80R  
LA SALLE CLEAR 59 50 72 SW8 29.79S  
LINCOLN CLOUDY 67 57 70 SW5 29.84R  
LITCHFIELD CLEAR 62 56 81 SW7 29.88S  
 
CITY SKY/WX TMP DP RH WIND PRES REMARKS
 
MACOMB PTCLDY 60 51 71 W6 29.86R  
MATTOON CLEAR 64 54 69 SW6 29.85S  
MOLINE CLEAR 58 50 75 SW5 29.79F  
OLNEY CLEAR 63 61 94 CALM 29.89S  
PARIS CLEAR 60 55 84 SW7 29.86S  
PONTIAC CLOUDY 65 51 60 SW9 29.80F  
QUINCY CLOUDY 62 53 72 SW7 29.88R  
RANTOUL CLEAR 62 56 82 SW7 29.83S  
ROBINSON CLEAR 61 56 83 SW6 29.88S  
TAYLORVILLE PTCLDY 63 56 79 SW6 29.86F  
TERRE HAUTE CLEAR 61 55 81 SW3 29.86R  

 
 
 
CITY SKY/WX TMP DP RH WIND PRES REMARKS
 
BURLINGTON CLEAR 58 52 80 SW6 29.84R  
CHICAGO CLOUDY 64 50 60 SW5 29.76S  
DES MOINES CLEAR 59 45 59 SW7 29.83F  
EVANSVILLE CLOUDY 63 61 93 W5 29.89F  
INDIANAPOLIS PTCLDY 61 58 90 SW8 29.84R  
KANSAS CITY CLEAR 57 51 80 S7 29.95R  
MILWAUKEE CLEAR 62 48 60 SW8 29.73S  
ST LOUIS PTCLDY 68 56 65 SW9 29.90R  

 
 
 
 
CLICK HERE TO GO TO PREVIOUS BULLETINS.

The Nexlab IL Page Main Text Page